ACA694 CYYZ-CYYT

Flight info

Callsign ACA694
Flight time 2h 37m
Altitude 37000
Route VERDO7 LORKA Q907 MIVAD AVALN5
Aircraft A320/M-SDE3FGHIRWY/LB1

Departure

Time 2026-05-08 22:53
Airport Toronto Pearson International Airport (CYYZ)

Arrival

Time 2026-05-09 01:31
Airport St. John's International Airport (CYYT)
Time Latitude Longitude Altitude Speed Heading
2026-05-08 22:02 43.68847 -79.62913 558 ft 0 kts 318°
2026-05-08 22:15 43.68840 -79.62905 567 ft 2 kts 305°
2026-05-08 22:15 43.68835 -79.62885 567 ft 2 kts 274°
2026-05-08 22:15 43.68833 -79.62862 565 ft 2 kts 256°
2026-05-08 22:15 43.68834 -79.62854 565 ft 0 kts 231°
2026-05-08 22:17 43.68833 -79.62856 565 ft 2 kts 231°
2026-05-08 22:17 43.68801 -79.62911 563 ft 9 kts 230°
2026-05-08 22:18 43.68761 -79.62970 565 ft 5 kts 216°
2026-05-08 22:18 43.68725 -79.62989 567 ft 10 kts 194°
2026-05-08 22:18 43.68649 -79.62968 562 ft 13 kts 141°
2026-05-08 22:18 43.68576 -79.62875 562 ft 15 kts 136°
2026-05-08 22:19 43.68492 -79.62766 562 ft 18 kts 137°
2026-05-08 22:19 43.68398 -79.62644 563 ft 19 kts 137°
2026-05-08 22:19 43.68308 -79.62524 563 ft 19 kts 138°
2026-05-08 22:19 43.68203 -79.62402 562 ft 21 kts 136°
2026-05-08 22:20 43.68093 -79.62259 562 ft 23 kts 137°
2026-05-08 22:20 43.67995 -79.62131 562 ft 14 kts 136°
2026-05-08 22:20 43.67972 -79.62022 568 ft 10 kts 57°
2026-05-08 22:20 43.67998 -79.61934 562 ft 11 kts 71°
2026-05-08 22:21 43.68047 -79.61844 566 ft 13 kts 46°
2026-05-08 22:21 43.68110 -79.61754 564 ft 11 kts 46°
2026-05-08 22:21 43.68142 -79.61731 564 ft 1 kts
2026-05-08 22:21 43.68175 -79.61736 569 ft 7 kts 352°
2026-05-08 22:22 43.68221 -79.61723 562 ft 7 kts 43°
2026-05-08 22:22 43.68245 -79.61681 562 ft 3 kts 46°
2026-05-08 22:22 43.68256 -79.61666 565 ft 0 kts 46°
2026-05-08 22:39 43.68255 -79.61668 561 ft 2 kts 46°
2026-05-08 22:40 43.68243 -79.61683 570 ft 2 kts 45°
2026-05-08 22:40 43.68232 -79.61699 571 ft 2 kts 44°
2026-05-08 22:40 43.68220 -79.61715 570 ft 2 kts 41°
2026-05-08 22:40 43.68207 -79.61729 571 ft 2 kts 34°
2026-05-08 22:41 43.68193 -79.61740 568 ft 2 kts 357°
2026-05-08 22:41 43.68176 -79.61738 568 ft 2 kts 348°
2026-05-08 22:41 43.68166 -79.61735 566 ft 2 kts 357°
2026-05-08 22:41 43.68150 -79.61733 565 ft 2 kts 353°
2026-05-08 22:42 43.68139 -79.61731 566 ft 1 kts
2026-05-08 22:42 43.68138 -79.61731 566 ft 0 kts 360°
2026-05-08 22:45 43.68139 -79.61731 566 ft 0 kts 360°
2026-05-08 22:45 43.68173 -79.61766 562 ft 7 kts 290°
2026-05-08 22:46 43.68155 -79.61823 563 ft 9 kts 226°
2026-05-08 22:46 43.68111 -79.61887 569 ft 8 kts 226°
2026-05-08 22:46 43.68074 -79.61941 561 ft 7 kts 226°
2026-05-08 22:46 43.68018 -79.61988 567 ft 10 kts 193°
2026-05-08 22:47 43.67959 -79.62045 562 ft 11 kts 249°
2026-05-08 22:47 43.67988 -79.62122 564 ft 9 kts 316°
2026-05-08 22:47 43.68030 -79.62177 562 ft 8 kts 316°
2026-05-08 22:47 43.68067 -79.62226 563 ft 8 kts 316°
2026-05-08 22:48 43.68109 -79.62281 562 ft 13 kts 316°
2026-05-08 22:48 43.68183 -79.62377 562 ft 14 kts 317°
2026-05-08 22:48 43.68252 -79.62461 562 ft 13 kts 321°
2026-05-08 22:48 43.68314 -79.62535 562 ft 11 kts 316°
2026-05-08 22:49 43.68390 -79.62634 562 ft 17 kts 316°
2026-05-08 22:49 43.68549 -79.62842 566 ft 14 kts 317°
2026-05-08 22:49 43.68619 -79.62932 561 ft 13 kts 317°
2026-05-08 22:50 43.68694 -79.63029 561 ft 19 kts 317°
2026-05-08 22:50 43.68790 -79.63154 562 ft 18 kts 316°
2026-05-08 22:50 43.68876 -79.63267 562 ft 16 kts 317°
2026-05-08 22:50 43.68949 -79.63362 564 ft 13 kts 317°
2026-05-08 22:51 43.69021 -79.63457 564 ft 20 kts 316°
2026-05-08 22:51 43.69101 -79.63540 572 ft 10 kts 357°
2026-05-08 22:51 43.69151 -79.63485 566 ft 12 kts 48°
2026-05-08 22:51 43.69235 -79.63424 567 ft 14 kts
2026-05-08 22:52 43.69332 -79.63422 564 ft 13 kts 353°
2026-05-08 22:52 43.69398 -79.63497 570 ft 13 kts 279°
2026-05-08 22:52 43.69337 -79.63619 567 ft 30 kts 226°
2026-05-08 22:52 43.69012 -79.64087 571 ft 101 kts 227°
2026-05-08 22:53 43.68390 -79.64991 573 ft 156 kts 226°
2026-05-08 22:53 43.67588 -79.66155 981 ft 169 kts 223°
2026-05-08 22:53 43.66855 -79.67437 1731 ft 172 kts 235°
2026-05-08 22:53 43.66173 -79.68807 2415 ft 176 kts 238°
2026-05-08 22:54 43.65436 -79.70293 2757 ft 199 kts 238°
2026-05-08 22:54 43.64593 -79.71973 3084 ft 226 kts 237°
2026-05-08 22:54 43.63646 -79.73835 3569 ft 247 kts 237°
2026-05-08 22:54 43.62629 -79.75801 4450 ft 252 kts 235°
2026-05-08 22:55 43.61347 -79.77485 5361 ft 261 kts 213°
2026-05-08 22:55 43.59580 -79.78183 6276 ft 272 kts 183°
2026-05-08 22:55 43.57734 -79.77588 7086 ft 285 kts 154°
2026-05-08 22:55 43.56261 -79.75736 7921 ft 296 kts 123°
2026-05-08 22:56 43.55353 -79.73165 8797 ft 300 kts 117°
2026-05-08 22:56 43.54468 -79.70548 9705 ft 303 kts 117°
2026-05-08 22:56 43.53549 -79.67905 10403 ft 311 kts 118°
2026-05-08 22:56 43.52556 -79.65129 10664 ft 335 kts 118°
2026-05-08 22:57 43.51591 -79.62107 10984 ft 355 kts 109°
2026-05-08 22:57 43.51058 -79.58732 11600 ft 365 kts 95°
2026-05-08 22:57 43.51062 -79.55214 12272 ft 370 kts 82°
2026-05-08 22:57 43.51587 -79.51735 12948 ft 374 kts 72°
2026-05-08 22:58 43.52267 -79.48238 13637 ft 380 kts 71°
2026-05-08 22:58 43.52956 -79.44690 14238 ft 386 kts 71°
2026-05-08 22:58 43.53890 -79.41227 14871 ft 387 kts 59°
2026-05-08 22:58 43.55100 -79.37899 15512 ft 390 kts 58°
2026-05-08 22:59 43.56329 -79.34542 16132 ft 394 kts 58°
2026-05-08 22:59 43.57570 -79.31148 16747 ft 399 kts 58°
2026-05-08 22:59 43.58821 -79.27714 17375 ft 403 kts 58°
2026-05-08 22:59 43.60084 -79.24234 17962 ft 407 kts 58°
2026-05-08 23:00 43.61358 -79.20717 18501 ft 412 kts 58°
2026-05-08 23:00 43.62642 -79.17166 19031 ft 416 kts 58°
2026-05-08 23:00 43.63939 -79.13575 19562 ft 420 kts 58°
2026-05-08 23:00 43.65247 -79.09949 20100 ft 424 kts 58°
2026-05-08 23:01 43.66551 -79.06322 20630 ft 428 kts 59°
2026-05-08 23:01 43.67878 -79.02631 21180 ft 432 kts 58°
2026-05-08 23:01 43.69222 -78.98893 21710 ft 435 kts 58°
2026-05-08 23:01 43.70587 -78.95084 22269 ft 439 kts 59°
2026-05-08 23:02 43.71928 -78.91330 22787 ft 443 kts 59°
2026-05-08 23:02 43.73300 -78.87491 23289 ft 447 kts 59°
2026-05-08 23:02 43.74680 -78.83626 23734 ft 450 kts 59°
2026-05-08 23:02 43.76072 -78.79727 24141 ft 454 kts 59°
2026-05-08 23:03 43.77477 -78.75785 24542 ft 458 kts 59°
2026-05-08 23:03 43.78877 -78.71813 24932 ft 461 kts 59°
2026-05-08 23:03 43.80276 -78.67798 25332 ft 465 kts 59°
2026-05-08 23:03 43.81674 -78.63743 25703 ft 468 kts 59°
2026-05-08 23:04 43.83074 -78.59663 26058 ft 471 kts 59°
2026-05-08 23:04 43.84482 -78.55556 26432 ft 474 kts 59°
2026-05-08 23:04 43.85899 -78.51420 26864 ft 476 kts 59°
2026-05-08 23:04 43.87322 -78.47261 27244 ft 478 kts 59°
2026-05-08 23:05 43.88754 -78.43087 27593 ft 481 kts 59°
2026-05-08 23:05 43.90180 -78.38939 27924 ft 484 kts 59°
2026-05-08 23:05 43.91631 -78.34716 28271 ft 487 kts 59°
2026-05-08 23:05 43.93092 -78.30456 28590 ft 490 kts 59°
2026-05-08 23:06 43.94554 -78.26180 28903 ft 492 kts 59°
2026-05-08 23:06 43.96024 -78.21873 29223 ft 495 kts 59°
2026-05-08 23:06 43.97498 -78.17538 29532 ft 498 kts 60°
2026-05-08 23:06 43.98979 -78.13178 29827 ft 501 kts 60°
2026-05-08 23:07 44.00467 -78.08789 30167 ft 502 kts 60°
2026-05-08 23:07 44.01950 -78.04397 30471 ft 503 kts 60°
2026-05-08 23:07 44.03437 -77.99997 30736 ft 504 kts 60°
2026-05-08 23:07 44.04932 -77.95574 30975 ft 506 kts 60°
2026-05-08 23:08 44.06426 -77.91139 31185 ft 508 kts 60°
2026-05-08 23:08 44.07926 -77.86680 31429 ft 510 kts 60°
2026-05-08 23:08 44.09427 -77.82209 31761 ft 509 kts 60°
2026-05-08 23:08 44.10922 -77.77745 32092 ft 508 kts 60°
2026-05-08 23:09 44.12411 -77.73283 32417 ft 508 kts 60°
2026-05-08 23:09 44.13898 -77.68820 32748 ft 507 kts 60°
2026-05-08 23:09 44.15382 -77.64366 33071 ft 507 kts 60°
2026-05-08 23:09 44.16864 -77.59911 33389 ft 507 kts 60°
2026-05-08 23:10 44.18345 -77.55457 33747 ft 506 kts 60°
2026-05-08 23:10 44.19841 -77.51022 34041 ft 504 kts 57°
2026-05-08 23:10 44.21584 -77.46892 34291 ft 499 kts 52°
2026-05-08 23:10 44.23436 -77.42806 34540 ft 499 kts 52°
2026-05-08 23:11 44.25285 -77.38714 34780 ft 499 kts 52°
2026-05-08 23:11 44.27135 -77.34613 35016 ft 499 kts 52°
2026-05-08 23:11 44.28981 -77.30504 35272 ft 499 kts 53°
2026-05-08 23:11 44.30816 -77.26411 35537 ft 498 kts 53°
2026-05-08 23:12 44.32653 -77.22303 35782 ft 497 kts 53°
2026-05-08 23:12 44.34483 -77.18205 36001 ft 497 kts 53°
2026-05-08 23:12 44.36318 -77.14098 36213 ft 497 kts 53°
2026-05-08 23:12 44.38145 -77.10002 36416 ft 497 kts 53°
2026-05-08 23:13 44.39972 -77.05891 36614 ft 497 kts 53°
2026-05-08 23:13 44.41797 -77.01787 36818 ft 497 kts 53°
2026-05-08 23:13 44.45437 -76.93585 36926 ft 495 kts 53°
2026-05-08 23:14 44.49050 -76.85412 36917 ft 493 kts 53°
2026-05-08 23:14 44.52660 -76.77243 36916 ft 493 kts 54°
2026-05-08 23:15 44.56260 -76.69070 36914 ft 493 kts 54°
2026-05-08 23:15 44.59835 -76.60931 36937 ft 493 kts 54°
2026-05-08 23:16 44.63423 -76.52730 36931 ft 492 kts 54°
2026-05-08 23:16 44.66997 -76.44529 36922 ft 492 kts 54°
2026-05-08 23:17 44.70562 -76.36323 36917 ft 492 kts 54°
2026-05-08 23:17 44.74136 -76.28092 36912 ft 492 kts 54°
2026-05-08 23:18 44.77436 -76.19650 36934 ft 496 kts 66°
2026-05-08 23:18 44.79814 -76.10502 36915 ft 497 kts 67°
2026-05-08 23:19 44.82174 -76.01425 36917 ft 497 kts 67°
2026-05-08 23:19 44.84553 -75.92277 36900 ft 497 kts 67°
2026-05-08 23:20 44.86919 -75.83120 36895 ft 497 kts 67°
2026-05-08 23:20 44.89266 -75.73958 36907 ft 497 kts 67°
2026-05-08 23:21 44.91609 -75.64792 36907 ft 496 kts 67°
2026-05-08 23:21 44.93941 -75.55630 36902 ft 496 kts 67°
2026-05-08 23:22 44.96273 -75.46462 36903 ft 496 kts 67°
2026-05-08 23:22 44.98584 -75.37341 36902 ft 496 kts 68°
2026-05-08 23:23 45.00888 -75.28151 36896 ft 496 kts 68°
2026-05-08 23:23 45.03190 -75.18946 36922 ft 496 kts 68°
2026-05-08 23:24 45.05489 -75.09749 36919 ft 496 kts 68°
2026-05-08 23:24 45.07776 -75.00550 36913 ft 495 kts 68°
2026-05-08 23:25 45.10056 -74.91345 36900 ft 495 kts 68°
2026-05-08 23:25 45.12327 -74.82141 36895 ft 495 kts 68°
2026-05-08 23:26 45.14603 -74.73009 36916 ft 495 kts 67°
2026-05-08 23:26 45.17046 -74.63886 36907 ft 494 kts 66°
2026-05-08 23:27 45.19529 -74.54822 36901 ft 493 kts 66°
2026-05-08 23:27 45.21963 -74.45785 36884 ft 493 kts 66°
2026-05-08 23:28 45.24366 -74.36678 36875 ft 493 kts 67°
2026-05-08 23:28 45.26757 -74.27556 36872 ft 493 kts 67°
2026-05-08 23:29 45.28752 -74.19972 36902 ft 493 kts 67°
2026-05-08 23:29 45.31152 -74.10862 36896 ft 492 kts 67°
2026-05-08 23:30 45.33538 -74.01736 36892 ft 492 kts 67°
2026-05-08 23:30 45.35912 -73.92590 36891 ft 492 kts 67°
2026-05-08 23:31 45.38278 -73.83456 36892 ft 492 kts 67°
2026-05-08 23:31 45.40633 -73.74311 36918 ft 492 kts 68°
2026-05-08 23:32 45.42977 -73.65179 36905 ft 491 kts 68°
2026-05-08 23:32 45.45322 -73.56038 36901 ft 491 kts 68°
2026-05-08 23:33 45.47635 -73.46968 36897 ft 490 kts 68°
2026-05-08 23:33 45.49954 -73.37830 36893 ft 490 kts 68°
2026-05-08 23:34 45.52267 -73.28680 36895 ft 490 kts 68°
2026-05-08 23:34 45.54574 -73.19529 36897 ft 490 kts 68°
2026-05-08 23:35 45.56871 -73.10366 36900 ft 490 kts 68°
2026-05-08 23:35 45.59159 -73.01208 36907 ft 490 kts 68°
2026-05-08 23:36 45.61429 -72.92097 36899 ft 490 kts 68°
2026-05-08 23:36 45.63712 -72.82921 36909 ft 490 kts 68°
2026-05-08 23:37 45.65983 -72.73726 36929 ft 490 kts 69°
2026-05-08 23:37 45.68235 -72.64527 36926 ft 490 kts 69°
2026-05-08 23:38 45.70480 -72.55346 36922 ft 489 kts 69°
2026-05-08 23:38 45.72727 -72.46147 36906 ft 489 kts 69°
2026-05-08 23:39 45.74962 -72.36959 36903 ft 489 kts 69°
2026-05-08 23:39 45.77189 -72.27748 36896 ft 488 kts 69°
2026-05-08 23:40 45.79407 -72.18556 36914 ft 488 kts 69°
2026-05-08 23:40 45.81596 -72.09405 36909 ft 488 kts 69°
2026-05-08 23:41 45.83793 -72.00191 36903 ft 488 kts 69°
2026-05-08 23:41 45.85992 -71.90972 36900 ft 489 kts 69°
2026-05-08 23:42 45.88183 -71.81724 36903 ft 488 kts 69°
2026-05-08 23:42 45.90356 -71.72496 36900 ft 488 kts 69°
2026-05-08 23:43 45.92530 -71.63258 36911 ft 488 kts 69°
2026-05-08 23:43 45.94691 -71.54011 36906 ft 488 kts 69°
2026-05-08 23:44 45.96843 -71.44756 36893 ft 488 kts 69°
2026-05-08 23:44 45.98993 -71.35498 36893 ft 488 kts 69°
2026-05-08 23:45 46.01134 -71.26241 36887 ft 488 kts 70°
2026-05-08 23:45 46.03264 -71.17020 36908 ft 488 kts 70°
2026-05-08 23:46 46.05396 -71.07739 36900 ft 488 kts 70°
2026-05-08 23:46 46.07514 -70.98435 36890 ft 488 kts 70°
2026-05-08 23:47 46.09620 -70.89121 36888 ft 488 kts 70°
2026-05-08 23:47 46.11722 -70.79813 36887 ft 488 kts 70°
2026-05-08 23:48 46.13817 -70.70506 36887 ft 488 kts 70°
2026-05-08 23:48 46.15906 -70.61189 36900 ft 488 kts 70°
2026-05-08 23:49 46.17986 -70.51884 36882 ft 487 kts 71°
2026-05-08 23:49 46.20062 -70.42572 36883 ft 487 kts 71°
2026-05-08 23:50 46.22120 -70.33261 36881 ft 487 kts 71°
2026-05-08 23:50 46.24146 -70.24011 36879 ft 486 kts 71°
2026-05-08 23:51 46.26150 -70.14670 36879 ft 486 kts 71°
2026-05-08 23:51 46.28128 -70.05332 36890 ft 486 kts 72°
2026-05-08 23:52 46.30106 -69.95984 36874 ft 486 kts 72°
2026-05-08 23:52 46.32085 -69.86635 36876 ft 485 kts 72°
2026-05-08 23:53 46.34046 -69.77296 36877 ft 485 kts 72°
2026-05-08 23:53 46.35995 -69.67944 36872 ft 485 kts 72°
2026-05-08 23:54 46.37939 -69.58587 36880 ft 485 kts 72°
2026-05-08 23:55 46.40832 -69.44628 36873 ft 484 kts 72°
2026-05-08 23:55 46.42764 -69.35262 36873 ft 484 kts 72°
2026-05-08 23:56 46.44685 -69.25905 36872 ft 484 kts 72°
2026-05-08 23:56 46.46595 -69.16524 36872 ft 484 kts 73°
2026-05-08 23:57 46.48478 -69.07210 36864 ft 484 kts 73°
2026-05-08 23:57 46.50385 -68.97765 36875 ft 484 kts 73°
2026-05-08 23:58 46.52255 -68.88451 36865 ft 484 kts 73°
2026-05-08 23:58 46.54131 -68.79058 36862 ft 483 kts 73°
2026-05-08 23:59 46.55998 -68.69684 36854 ft 483 kts 73°
2026-05-08 23:59 46.57864 -68.60286 36851 ft 483 kts 73°
2026-05-09 00:00 46.59719 -68.50893 36865 ft 483 kts 73°
2026-05-09 00:00 46.61556 -68.41494 36856 ft 483 kts 74°
2026-05-09 00:01 46.63379 -68.32098 36854 ft 482 kts 74°
2026-05-09 00:01 46.65204 -68.22712 36870 ft 482 kts 73°
2026-05-09 00:02 46.67026 -68.13312 36855 ft 481 kts 74°
2026-05-09 00:02 46.68817 -68.03990 36863 ft 482 kts 74°
2026-05-09 00:03 46.70631 -67.94522 36856 ft 482 kts 74°
2026-05-09 00:03 46.72414 -67.85177 36853 ft 482 kts 74°
2026-05-09 00:04 46.74203 -67.75741 36846 ft 482 kts 74°
2026-05-09 00:04 46.75984 -67.66321 36832 ft 482 kts 74°
2026-05-09 00:05 46.77752 -67.56880 36834 ft 482 kts 75°
2026-05-09 00:05 46.79511 -67.47446 36836 ft 482 kts 75°
2026-05-09 00:06 46.81272 -67.38001 36834 ft 482 kts 75°
2026-05-09 00:06 46.83021 -67.28549 36836 ft 482 kts 75°
2026-05-09 00:07 46.84757 -67.19096 36831 ft 482 kts 75°
2026-05-09 00:07 46.86473 -67.09679 36830 ft 481 kts 75°
2026-05-09 00:08 46.88076 -67.00166 36830 ft 481 kts 78°
2026-05-09 00:08 46.89324 -66.90545 36820 ft 482 kts 81°
2026-05-09 00:09 46.90441 -66.80886 36822 ft 481 kts 81°
2026-05-09 00:09 46.91606 -66.71239 36831 ft 481 kts 80°
2026-05-09 00:10 46.92825 -66.61621 36825 ft 480 kts 80°
2026-05-09 00:10 46.94036 -66.52069 36822 ft 480 kts 80°
2026-05-09 00:11 46.95227 -66.42459 36797 ft 479 kts 81°
2026-05-09 00:11 46.96399 -66.32862 36800 ft 479 kts 81°
2026-05-09 00:12 46.97564 -66.23258 36796 ft 479 kts 81°
2026-05-09 00:12 46.98726 -66.13650 36804 ft 479 kts 81°
2026-05-09 00:13 46.99881 -66.04025 36806 ft 479 kts 81°
2026-05-09 00:13 47.01023 -65.94415 36806 ft 479 kts 81°
2026-05-09 00:14 47.02160 -65.84801 36799 ft 479 kts 82°
2026-05-09 00:14 47.03095 -65.76811 36796 ft 479 kts 82°
2026-05-09 00:15 47.04217 -65.67185 36805 ft 479 kts 82°
2026-05-09 00:15 47.05332 -65.57555 36803 ft 479 kts 82°
2026-05-09 00:16 47.06442 -65.47911 36814 ft 479 kts 82°
2026-05-09 00:16 47.07534 -65.38286 36798 ft 478 kts 82°
2026-05-09 00:17 47.08616 -65.28661 36802 ft 478 kts 82°
2026-05-09 00:17 47.09695 -65.19045 36807 ft 478 kts 82°
2026-05-09 00:18 47.10766 -65.09429 36809 ft 478 kts 82°
2026-05-09 00:18 47.11829 -64.99784 36809 ft 478 kts 83°
2026-05-09 00:19 47.12885 -64.90162 36789 ft 477 kts 83°
2026-05-09 00:19 47.13923 -64.80594 36810 ft 477 kts 83°
2026-05-09 00:20 47.14964 -64.70952 36820 ft 477 kts 83°
2026-05-09 00:20 47.15991 -64.61333 36825 ft 477 kts 83°
2026-05-09 00:21 47.17010 -64.51706 36831 ft 477 kts 83°
2026-05-09 00:21 47.18020 -64.42076 36826 ft 477 kts 84°
2026-05-09 00:22 47.19027 -64.32436 36820 ft 477 kts 84°
2026-05-09 00:22 47.20026 -64.22789 36825 ft 477 kts 84°
2026-05-09 00:23 47.21017 -64.13154 36827 ft 476 kts 84°
2026-05-09 00:23 47.21992 -64.03577 36817 ft 476 kts 84°
2026-05-09 00:24 47.22955 -63.93946 36815 ft 476 kts 84°
2026-05-09 00:24 47.23913 -63.84298 36817 ft 476 kts 84°
2026-05-09 00:25 47.24870 -63.74653 36821 ft 475 kts 84°
2026-05-09 00:25 47.25816 -63.65030 36819 ft 475 kts 84°
2026-05-09 00:26 47.26752 -63.55405 36817 ft 475 kts 85°
2026-05-09 00:26 47.27676 -63.45823 36823 ft 475 kts 85°
2026-05-09 00:27 47.28596 -63.36197 36804 ft 474 kts 85°
2026-05-09 00:27 47.29511 -63.26569 36813 ft 474 kts 85°
2026-05-09 00:28 47.30415 -63.16936 36820 ft 474 kts 85°
2026-05-09 00:28 47.31301 -63.07314 36823 ft 474 kts 86°
2026-05-09 00:29 47.32188 -62.97691 36824 ft 474 kts 85°
2026-05-09 00:29 47.33061 -62.88143 36801 ft 473 kts 86°
2026-05-09 00:30 47.33924 -62.78528 36805 ft 473 kts 86°
2026-05-09 00:30 47.34781 -62.68920 36809 ft 473 kts 86°
2026-05-09 00:31 47.35639 -62.59317 36811 ft 472 kts 86°
2026-05-09 00:31 47.36478 -62.49708 36816 ft 472 kts 87°
2026-05-09 00:32 47.37308 -62.40089 36807 ft 472 kts 86°
2026-05-09 00:32 47.38148 -62.30474 36784 ft 472 kts 87°
2026-05-09 00:33 47.38963 -62.20849 36793 ft 473 kts 87°
2026-05-09 00:33 47.39760 -62.11230 36790 ft 473 kts 88°
2026-05-09 00:34 47.40558 -62.01601 36803 ft 472 kts 88°
2026-05-09 00:34 47.41351 -61.92031 36792 ft 472 kts 88°
2026-05-09 00:35 47.42137 -61.82416 36750 ft 472 kts 88°
2026-05-09 00:35 47.42886 -61.72790 36760 ft 471 kts 89°
2026-05-09 00:36 47.43512 -61.63161 36766 ft 471 kts 90°
2026-05-09 00:36 47.44101 -61.53537 36774 ft 471 kts 90°
2026-05-09 00:37 47.44710 -61.43890 36781 ft 471 kts 90°
2026-05-09 00:37 47.45334 -61.34241 36750 ft 471 kts 90°
2026-05-09 00:38 47.45946 -61.24637 36768 ft 471 kts 90°
2026-05-09 00:38 47.46540 -61.14999 36783 ft 471 kts 90°
2026-05-09 00:39 47.47124 -61.05348 36792 ft 471 kts 90°
2026-05-09 00:39 47.47705 -60.95697 36793 ft 471 kts 90°
2026-05-09 00:40 47.48277 -60.86059 36793 ft 470 kts 90°
2026-05-09 00:40 47.48836 -60.76432 36763 ft 470 kts 91°
2026-05-09 00:41 47.49661 -60.61999 36775 ft 469 kts 91°
2026-05-09 00:41 47.50199 -60.52400 36783 ft 468 kts 91°
2026-05-09 00:42 47.50727 -60.42861 36775 ft 468 kts 91°
2026-05-09 00:42 47.51248 -60.33263 36724 ft 468 kts 92°
2026-05-09 00:43 47.51760 -60.23668 36737 ft 468 kts 92°
2026-05-09 00:43 47.52266 -60.14074 36746 ft 468 kts 92°
2026-05-09 00:44 47.52767 -60.04460 36736 ft 468 kts 92°
2026-05-09 00:44 47.53265 -59.94867 36757 ft 467 kts 93°
2026-05-09 00:45 47.53750 -59.85273 36758 ft 467 kts 93°
2026-05-09 00:45 47.54220 -59.75676 36721 ft 467 kts 94°
2026-05-09 00:46 47.54678 -59.66136 36739 ft 467 kts 94°
2026-05-09 00:46 47.55139 -59.56494 36747 ft 467 kts 94°
2026-05-09 00:47 47.55586 -59.46983 36748 ft 466 kts 94°
2026-05-09 00:47 47.56024 -59.37405 36749 ft 466 kts 94°
2026-05-09 00:48 47.56459 -59.27824 36688 ft 466 kts 94°
2026-05-09 00:48 47.56890 -59.18244 36723 ft 465 kts 94°
2026-05-09 00:49 47.57303 -59.08697 36735 ft 464 kts 94°
2026-05-09 00:49 47.57705 -58.99157 36738 ft 464 kts 95°
2026-05-09 00:50 47.58107 -58.89626 36727 ft 464 kts 95°
2026-05-09 00:50 47.58497 -58.80099 36727 ft 463 kts 95°
2026-05-09 00:51 47.58873 -58.70653 36725 ft 463 kts 95°
2026-05-09 00:51 47.59249 -58.61144 36695 ft 462 kts 95°
2026-05-09 00:52 47.59619 -58.51634 36711 ft 462 kts 95°
2026-05-09 00:52 47.59977 -58.42137 36705 ft 461 kts 95°
2026-05-09 00:53 47.60325 -58.32637 36707 ft 461 kts 95°
2026-05-09 00:53 47.60663 -58.23170 36659 ft 460 kts 96°
2026-05-09 00:54 47.61002 -58.13700 36674 ft 460 kts 96°
2026-05-09 00:54 47.61332 -58.04237 36668 ft 459 kts 96°
2026-05-09 00:55 47.61646 -57.94785 36674 ft 459 kts 96°
2026-05-09 00:55 47.61948 -57.85345 36656 ft 458 kts 96°
2026-05-09 00:56 47.62248 -57.75912 36607 ft 458 kts 97°
2026-05-09 00:56 47.62549 -57.66497 36652 ft 457 kts 97°
2026-05-09 00:57 47.62836 -57.57097 36657 ft 456 kts 97°
2026-05-09 00:57 47.63111 -57.47762 36659 ft 456 kts 97°
2026-05-09 00:58 47.63379 -57.38377 36655 ft 455 kts 97°
2026-05-09 00:58 47.63641 -57.28983 36650 ft 455 kts 97°
2026-05-09 00:59 47.63890 -57.19625 36607 ft 455 kts 98°
2026-05-09 00:59 47.64131 -57.10259 36641 ft 454 kts 98°
2026-05-09 01:00 47.64367 -57.00903 36626 ft 453 kts 98°
2026-05-09 01:00 47.64598 -56.91562 36631 ft 453 kts 98°
2026-05-09 01:01 47.64822 -56.82227 36612 ft 453 kts 98°
2026-05-09 01:01 47.65000 -56.74472 36596 ft 452 kts 98°
2026-05-09 01:02 47.65203 -56.65149 36570 ft 452 kts 99°
2026-05-09 01:02 47.65396 -56.55818 36563 ft 452 kts 99°
2026-05-09 01:03 47.65591 -56.46510 36530 ft 451 kts 99°
2026-05-09 01:03 47.65784 -56.37203 36527 ft 451 kts 99°
2026-05-09 01:04 47.65964 -56.27907 36539 ft 451 kts 99°
2026-05-09 01:04 47.66133 -56.18619 36486 ft 449 kts 100°
2026-05-09 01:05 47.66294 -56.09392 36524 ft 450 kts 100°
2026-05-09 01:06 47.66517 -55.95461 36506 ft 450 kts 100°
2026-05-09 01:06 47.66659 -55.86189 36506 ft 450 kts 100°
2026-05-09 01:07 47.66797 -55.76897 36488 ft 450 kts 100°
2026-05-09 01:07 47.66925 -55.67604 35886 ft 451 kts 101°
2026-05-09 01:07 47.66990 -55.62990 35400 ft 446 kts 102°
2026-05-09 01:08 47.67055 -55.58398 34869 ft 442 kts 102°
2026-05-09 01:08 47.67117 -55.53856 34318 ft 438 kts 103°
2026-05-09 01:08 47.67173 -55.49345 33765 ft 435 kts 103°
2026-05-09 01:08 47.67228 -55.44887 33179 ft 431 kts 103°
2026-05-09 01:09 47.67276 -55.40465 32638 ft 426 kts 104°
2026-05-09 01:09 47.67322 -55.36165 32136 ft 421 kts 104°
2026-05-09 01:09 47.67365 -55.31839 31615 ft 417 kts 104°
2026-05-09 01:09 47.67407 -55.27555 31093 ft 414 kts 104°
2026-05-09 01:10 47.67444 -55.23293 30581 ft 411 kts 104°
2026-05-09 01:10 47.67479 -55.19068 30070 ft 408 kts 104°
2026-05-09 01:10 47.67514 -55.14860 29566 ft 405 kts 104°
2026-05-09 01:10 47.67551 -55.10701 29053 ft 402 kts 104°
2026-05-09 01:11 47.67586 -55.06575 28559 ft 397 kts 103°
2026-05-09 01:11 47.67621 -55.02504 28116 ft 393 kts 103°
2026-05-09 01:11 47.67653 -54.98468 27659 ft 389 kts 103°
2026-05-09 01:11 47.67681 -54.94474 27232 ft 385 kts 103°
2026-05-09 01:12 47.67702 -54.90531 26800 ft 381 kts 103°
2026-05-09 01:12 47.67723 -54.86604 26357 ft 378 kts 103°
2026-05-09 01:12 47.67746 -54.82717 25921 ft 376 kts 102°
2026-05-09 01:12 47.67769 -54.78851 25479 ft 373 kts 102°
2026-05-09 01:13 47.67791 -54.75066 25055 ft 371 kts 102°
2026-05-09 01:13 47.67808 -54.71235 24595 ft 370 kts 102°
2026-05-09 01:13 47.67824 -54.67417 24139 ft 369 kts 102°
2026-05-09 01:13 47.67838 -54.63619 23653 ft 368 kts 101°
2026-05-09 01:14 47.67852 -54.59826 23184 ft 367 kts 101°
2026-05-09 01:14 47.67865 -54.56031 22652 ft 366 kts 101°
2026-05-09 01:14 47.67879 -54.52267 22175 ft 364 kts 101°
2026-05-09 01:14 47.67893 -54.48512 21696 ft 363 kts 100°
2026-05-09 01:15 47.67904 -54.44776 21234 ft 362 kts 100°
2026-05-09 01:15 47.67913 -54.41039 20756 ft 361 kts 100°
2026-05-09 01:15 47.67920 -54.37324 20300 ft 361 kts 100°
2026-05-09 01:15 47.67927 -54.33601 19835 ft 360 kts 100°
2026-05-09 01:16 47.67933 -54.29886 19373 ft 359 kts 100°
2026-05-09 01:16 47.67939 -54.26182 18914 ft 359 kts 100°
2026-05-09 01:16 47.67940 -54.22486 18460 ft 359 kts 100°
2026-05-09 01:17 47.67950 -54.15076 17522 ft 360 kts 96°
2026-05-09 01:17 47.68173 -54.11365 17065 ft 360 kts 94°
2026-05-09 01:17 47.68412 -54.07712 16679 ft 357 kts 94°
2026-05-09 01:17 47.68648 -54.04102 16537 ft 346 kts 94°
2026-05-09 01:18 47.68874 -54.00560 16163 ft 344 kts 94°
2026-05-09 01:18 47.69090 -53.97033 15760 ft 343 kts 94°
2026-05-09 01:18 47.69305 -53.93506 15351 ft 343 kts 94°
2026-05-09 01:18 47.69519 -53.89984 14943 ft 343 kts 94°
2026-05-09 01:19 47.69731 -53.86503 14542 ft 344 kts 94°
2026-05-09 01:19 47.69949 -53.82908 14118 ft 344 kts 93°
2026-05-09 01:19 47.70162 -53.79371 13705 ft 344 kts 93°
2026-05-09 01:19 47.70372 -53.75831 13285 ft 344 kts 93°
2026-05-09 01:20 47.70584 -53.72297 12827 ft 343 kts 93°
2026-05-09 01:20 47.70794 -53.68786 12406 ft 341 kts 92°
2026-05-09 01:20 47.71005 -53.65290 11990 ft 339 kts 92°
2026-05-09 01:20 47.71214 -53.61804 11589 ft 337 kts 92°
2026-05-09 01:21 47.71417 -53.58418 11451 ft 326 kts 92°
2026-05-09 01:21 47.71617 -53.55074 11123 ft 322 kts 92°
2026-05-09 01:21 47.71809 -53.51809 10754 ft 318 kts 92°
2026-05-09 01:21 47.72001 -53.48557 10109 ft 315 kts 92°
2026-05-09 01:22 47.72187 -53.45345 9517 ft 310 kts 92°
2026-05-09 01:22 47.72368 -53.42213 9023 ft 299 kts 92°
2026-05-09 01:22 47.72543 -53.39192 8595 ft 288 kts 92°
2026-05-09 01:22 47.72708 -53.36288 8202 ft 277 kts 92°
2026-05-09 01:23 47.72866 -53.33439 7795 ft 276 kts 92°
2026-05-09 01:23 47.73022 -53.30599 7395 ft 275 kts 92°
2026-05-09 01:23 47.73179 -53.27752 6975 ft 277 kts 92°
2026-05-09 01:23 47.73338 -53.24889 6551 ft 278 kts 92°
2026-05-09 01:24 47.73496 -53.22013 6129 ft 279 kts 91°
2026-05-09 01:24 47.73654 -53.19130 5677 ft 281 kts 91°
2026-05-09 01:24 47.73811 -53.16236 5221 ft 281 kts 91°
2026-05-09 01:24 47.73970 -53.13369 4761 ft 282 kts 90°
2026-05-09 01:25 47.74133 -53.10426 4309 ft 282 kts 91°
2026-05-09 01:25 47.74292 -53.07594 4183 ft 267 kts 92°
2026-05-09 01:25 47.74442 -53.04926 4122 ft 252 kts 92°
2026-05-09 01:25 47.74583 -53.02406 4049 ft 239 kts 93°
2026-05-09 01:26 47.74712 -53.00005 3938 ft 235 kts 96°
2026-05-09 01:26 47.74835 -52.97594 3856 ft 234 kts 95°
2026-05-09 01:26 47.74958 -52.95183 3756 ft 234 kts 95°
2026-05-09 01:26 47.74919 -52.92827 3680 ft 221 kts 112°
2026-05-09 01:27 47.74389 -52.90769 3519 ft 207 kts 133°
2026-05-09 01:27 47.73476 -52.89206 3300 ft 194 kts 149°
2026-05-09 01:27 47.72454 -52.87890 3057 ft 194 kts 149°
2026-05-09 01:27 47.71438 -52.86581 2807 ft 193 kts 149°
2026-05-09 01:28 47.70429 -52.85279 2550 ft 190 kts 148°
2026-05-09 01:28 47.69457 -52.84021 2296 ft 180 kts 149°
2026-05-09 01:28 47.68542 -52.82841 2102 ft 171 kts 149°
2026-05-09 01:28 47.67670 -52.81718 1849 ft 161 kts 149°
2026-05-09 01:29 47.66868 -52.80682 1627 ft 145 kts 149°
2026-05-09 01:29 47.66154 -52.79761 1463 ft 129 kts 150°
2026-05-09 01:29 47.65495 -52.78917 1275 ft 122 kts 149°
2026-05-09 01:29 47.64856 -52.78101 1097 ft 120 kts 148°
2026-05-09 01:30 47.64225 -52.77303 947 ft 119 kts 146°
2026-05-09 01:30 47.63595 -52.76484 774 ft 120 kts 145°
2026-05-09 01:30 47.62974 -52.75673 598 ft 118 kts 147°
2026-05-09 01:30 47.62352 -52.74876 461 ft 114 kts 146°
2026-05-09 01:31 47.61861 -52.74257 434 ft 69 kts 139°
2026-05-09 01:31 47.61625 -52.73951 429 ft 24 kts 139°
2026-05-09 01:31 47.61506 -52.73842 423 ft 17 kts 176°
2026-05-09 01:31 47.61408 -52.73834 426 ft 10 kts 176°
2026-05-09 01:32 47.61361 -52.73829 437 ft 6 kts 176°
2026-05-09 01:32 47.61311 -52.73824 434 ft 5 kts 176°
2026-05-09 01:32 47.61262 -52.73838 440 ft 10 kts 224°
2026-05-09 01:32 47.61269 -52.73909 448 ft 4 kts 291°
2026-05-09 01:33 47.61303 -52.73957 449 ft 14 kts 340°
2026-05-09 01:33 47.61381 -52.74034 449 ft 10 kts 300°
2026-05-09 01:33 47.61407 -52.74118 449 ft 8 kts 293°
2026-05-09 01:33 47.61428 -52.74191 449 ft 8 kts 293°
2026-05-09 01:34 47.61447 -52.74256 449 ft 6 kts 294°
2026-05-09 01:34 47.61462 -52.74305 449 ft 4 kts 294°
2026-05-09 01:34 47.61464 -52.74348 449 ft 6 kts 248°
2026-05-09 01:34 47.61426 -52.74381 449 ft 7 kts 202°
2026-05-09 01:35 47.61402 -52.74396 449 ft 0 kts 203°